Regional Weather Roundup
Issued by NWS

Home | Current Version | Previous Version | Graphics & Text | Print | Product List | Glossary Off
Versions: 1 2 3 4 5 6 7 8 9 10 11 12 13 14 15 16 17 18 19 20 21 22 23 24 25 26 27 28 29 30 31 32 33 34 35 36 37 38 39 40 41 42 43 44 45 46 47 48 49 50

000
ASUS43 KFSD 241202
RWRSD

WEATHER ROUNDUP FOR SOUTH DAKOTA
NATIONAL WEATHER SERVICE SIOUX FALLS SD
700 AM CDT WED MAY 24 2017

NOTE: "FAIR" INDICATES FEW OR NO CLOUDS BELOW 12,000 FEET WITH NO
SIGNIFICANT WEATHER AND/OR OBSTRUCTIONS TO VISIBILITY.


SDZ001>005-009-010-012>017-241300-
NORTHWEST AND NORTH CENTRAL SOUTH DAKOTA

CITY           SKY/WX    TMP DP  RH WIND       PRES   REMARKS
BUFFALO          N/A     42  37  82 SE15      29.65F
FAITH            N/A     37  35  92 S14       29.78F
MOBRIDGE       FOG       40  37  89 CALM      29.79F VSB<1/4
$$

SDZ012>016-024>037-041>051-057-063-072>074-241300-
SOUTHWEST AND SOUTH CENTRAL SOUTH DAKOTA

CITY           SKY/WX    TMP DP  RH WIND       PRES   REMARKS
RAPID CTY ARPT CLEAR     38  34  85 S9        29.78F
PIERRE         CLEAR     35  32  88 CALM      29.82F
CUSTER         CLOUDY    33  28  81 CALM      29.81F
ELLSWORTH AFB  CLEAR     41  36  84 S12       29.76F
PHILIP         PTCLDY    31  29  92 CALM      29.82F
PINE RIDGE     CLEAR     40  36  86 CALM      29.82F
SPEARFISH      FAIR      41  36  81 S7        29.72F
WINNER         FAIR      38  36  92 SW5       29.85F
$$

SDZ004>011-016>023-039-040-241300-
NORTHEAST SOUTH DAKOTA

CITY           SKY/WX    TMP DP  RH WIND       PRES   REMARKS
ABERDEEN       CLOUDY    39  35  86 CALM      29.83F FOG
WATERTOWN      CLOUDY    43  42  97 NW3       29.82S
BROOKINGS      CLOUDY    44  43  96 CALM      29.82S
SISSETON         N/A     46  45  96 CALM      29.83S
$$

SDZ017-020-022-023-036>040-048>070-241300-
SOUTHEAST SOUTH DAKOTA

CITY           SKY/WX    TMP DP  RH WIND       PRES   REMARKS
SIOUX FALLS    PTSUNNY   45  44  97 NE5       29.81F
HURON          PTCLDY    36  36 100 CALM      29.83F FOG
CHAMBERLAIN    CLOUDY    38  38 100 CALM      29.85S
MITCHELL       CLEAR     41  40  96 NW5       29.84F FOG
YANKTON          N/A     43  42  97 NW13      29.83S
$$

ABBREVIATIONS USED IN REMARKS
   TC - TEMPERATURE IN CELSIUS
  WCI - WIND CHILL INDEX
   HX - HEAT INDEX
  VSB - VISIBILITY





USA.gov is the U.S. government's official web portal to all federal, state and local government web resources and services.